#timestamp,LO_Frequency,Hit,StdDev 
1545220815.1,286046997.9,N
1545220816.0,286046997.9,N
1545220835.8,286046996.1,N
1545220855.7,286046996.2,N
1545220875.5,286046995.8,N
1545220895.3,286046993.6,Y
1545220915.2,286046997.7,P
1545220935.0,286046996.7,P
1545220935.9,286046996.7,P
1545220955.8,286046997.4,Y
1545220975.6,286047000.1,P
1545220995.4,286046999.8,N
1545221015.3,286047001.0,N
1545221035.1,286047000.7,N
1545221055.8,286047000.7,N
1545221075.7,286046998.5,N
1545221095.5,286046998.5,N
1545221115.4,286046998.6,N
1545221135.2,286046997.7,N
1545221155.0,286046997.5,N
1545221155.9,286046997.5,N
1545221175.8,286046996.9,N
1545221195.6,286046996.6,N
1545221215.5,286046997.5,N
1545221235.3,286046997.1,N
1545221255.1,286046998.2,N
1545221275.9,286047000.8,N
1545221295.7,286047001.2,N
1545221315.5,286047000.7,N
1545221335.4,286046998.5,N
1545221355.2,286046999.1,N
1545221375.1,286046998.8,N
1545221376.0,286046998.8,N
1545221395.8,286046998.5,N
1545221415.6,286046999.4,N
1545221435.5,286046999.6,N
1545221455.3,286046999.6,N
1545221475.1,286046997.0,N
1545221495.9,286046998.7,N
1545221515.7,286046999.9,N
1545221535.6,286046998.3,N
1545221555.4,286046998.6,N
1545221575.2,286047000.8,N
1545221595.1,286047001.2,N
1545221596.0,286047001.2,N
1545221615.8,286046998.3,N
1545221635.7,286046998.4,N
1545221655.5,286046998.1,N
1545221675.3,286046999.2,N
1545221695.2,286047002.3,N
1545221715.9,286047002.8,N
1545221735.7,286047002.8,N
1545221755.6,286047001.7,N
1545221775.4,286047001.7,N
1545221795.3,286047004.3,N
1545221815.1,286047001.4,N
1545221816.0,286047001.4,N
1545221835.8,286047002.5,N
1545221855.7,286047002.6,N
1545221875.5,286047002.7,N
1545221895.3,286047002.0,N
1545221915.2,286047001.8,N
1545221935.0,286047000.2,N
1545221935.9,286047000.2,N
1545221955.8,286047003.2,N
1545221975.6,286047000.1,N
1545221995.4,286047002.6,N
1545222015.3,286047002.1,N
1545222035.1,286046999.7,N
1545222055.8,286047000.3,N
1545222075.7,286047002.5,N
1545222095.5,286047000.0,N
1545222115.4,286047000.3,N
1545222135.2,286047000.5,N
1545222155.0,286047000.0,N
1545222155.9,286047000.0,N
1545222175.8,286046998.5,N
1545222195.6,286047001.0,N
1545222215.4,286047002.1,N
1545222235.3,286047001.4,N
1545222255.1,286047002.7,N
1545222275.9,286047001.2,N
1545222295.7,286046998.8,N
1545222315.5,286046996.5,N
1545222335.4,286046997.0,N
1545222355.2,286046998.9,N
1545222375.0,286046999.2,N
1545222376.0,286046999.2,N
1545222395.8,286046997.2,N
1545222415.6,286046995.0,N
1545222435.5,286046995.7,N
1545222455.3,286046995.8,N
1545222475.1,286046995.6,N
1545222495.9,286046995.6,N
1545222515.7,286046995.8,N
1545222535.6,286046995.8,N
1545222555.4,286046993.7,N
1545222575.2,286046995.9,N
1545222595.1,286046997.6,N
1545222596.0,286046997.6,N
1545222615.8,286046995.8,N
1545222635.6,286046993.3,N
1545222655.5,286046993.8,N
1545222675.3,286046993.5,N
1545222695.2,286046996.1,N
1545222715.9,286046994.1,N
1545222735.7,286046993.7,N
1545222755.6,286046993.6,N
1545222775.4,286046996.0,N
1545222795.2,286046993.7,N
1545222815.1,286046994.3,N
1545222816.0,286046994.3,N
1545222835.8,286046993.6,Y
1545222855.7,286046998.3,P
1545222875.5,286046999.4,N
1545222895.3,286046999.2,N
1545222915.2,286046996.5,N
1545222935.0,286046999.3,N
1545222935.9,286046999.3,N
1545222955.8,286046999.6,N
1545222975.6,286046999.1,N
1545222995.4,286046999.3,N
1545223015.3,286046996.8,N
1545223035.1,286046996.5,N
1545223055.8,286046998.9,N
1545223075.7,286046999.1,N
1545223095.5,286046998.8,N
1545223115.4,286046999.5,N
1545223135.2,286046999.3,N
1545223155.0,286047000.3,N
1545223155.9,286047000.3,N
1545223175.8,286047000.5,N
1545223195.6,286046999.7,N
1545223215.4,286047002.4,N
1545223235.3,286047004.3,N
1545223255.1,286047004.2,N
1545223275.9,286047004.0,N
1545223295.7,286047003.1,N
1545223315.5,286047006.0,N
1545223335.4,286047005.7,N
1545223355.2,286047004.9,N
1545223375.1,286047007.0,N
1545223376.0,286047007.0,N
1545223395.8,286047009.1,N
1545223415.6,286047006.2,N
1545223435.5,286047006.4,N
1545223455.3,286047007.5,N
1545223475.1,286047006.4,N
1545223495.9,286047007.1,N
1545223515.7,286047006.8,N
1545223535.6,286047008.3,N
1545223555.4,286047006.3,N
1545223575.2,286047007.2,N
1545223595.1,286047007.4,N
1545223596.0,286047007.4,N
1545223615.8,286047008.8,N
1545223635.6,286047006.6,N
1545223655.5,286047007.3,N
1545223675.3,286047008.8,Y
1545223695.2,286047002.4,P
1545223715.0,286047002.5,N
1545223715.9,286047002.5,N
1545223735.7,286047002.4,N
1545223755.6,286047001.5,N
1545223775.4,286046999.7,N
1545223795.3,286047001.8,N
1545223815.1,286047004.2,N
1545223816.0,286047004.2,N
1545223835.8,286047004.3,N
1545223855.7,286047004.0,N
1545223875.5,286047001.3,N
1545223895.3,286047004.4,N
1545223915.2,286047006.0,Y
1545223935.0,286047002.7,P
1545223935.9,286047002.7,P
1545223955.8,286046998.4,P
1545223975.6,286046998.5,N
1545223995.4,286047000.5,N
1545224015.3,286047000.9,N
1545224035.1,286046999.9,N
1545224055.9,286046998.5,N
1545224075.7,286047000.9,N
1545224095.5,286047002.7,N
1545224115.4,286047000.7,N
1545224135.2,286047001.2,N
1545224155.0,286047000.9,N
1545224155.9,286047000.9,N
1545224175.8,286047001.8,N
1545224195.6,286047002.2,N
1545224215.5,286047001.9,N
1545224235.3,286047001.6,N
1545224255.1,286047004.0,N
1545224275.9,286047002.6,N
1545224295.7,286047002.4,N
1545224315.5,286047002.2,N
1545224335.4,286047004.1,N
1545224355.2,286047003.8,N
1545224375.1,286047003.0,N
1545224376.0,286047003.0,N
1545224395.8,286047002.2,N
